Time,TemperatureF,DewpointF,PressureIn,WindDirection,WindDirectionDegrees,WindSpeedMPH,WindSpeedGustMPH,Humidity,HourlyPrecipIn,Conditions,Clouds,dailyrainin,SoftwareType,DateUTC
2013-02-22 00:00:00,67.6,65.8,30.06,SW,219,0.0,1.0,94,0.00,,---,0.00,VWS V14.01,2013-02-22 05:00:00,
2013-02-22 00:01:00,67.6,65.8,30.06,SW,219,0.0,1.0,94,0.00,,---,0.00,VWS V14.01,2013-02-22 05:01:00,
2013-02-22 00:06:00,67.5,65.7,30.05,WSW,245,0.0,0.0,94,0.00,,---,0.00,VWS V14.01,2013-02-22 05:06:00,
2013-02-22 00:11:00,67.3,65.5,30.05,WSW,245,0.0,0.0,94,0.00,,---,0.00,VWS V14.01,2013-02-22 05:11:00,
2013-02-22 00:16:00,67.2,65.4,30.05,WSW,245,0.0,0.0,94,0.00,,---,0.00,VWS V14.01,2013-02-22 05:16:00,
2013-02-22 00:21:00,67.1,65.6,30.05,WSW,245,0.0,0.0,95,0.00,,---,0.00,VWS V14.01,2013-02-22 05:21:00,
2013-02-22 00:26:00,67.1,65.6,30.05,WSW,245,0.0,0.0,95,0.00,,---,0.00,VWS V14.01,2013-02-22 05:26:00,
2013-02-22 00:31:00,66.8,65.3,30.05,WSW,245,0.0,0.0,95,0.00,,---,0.00,VWS V14.01,2013-02-22 05:31:00,
2013-02-22 00:36:00,66.8,65.3,30.05,WSW,245,0.0,0.0,95,0.00,,---,0.00,VWS V14.01,2013-02-22 05:36:00,
2013-02-22 00:41:00,66.8,65.3,30.05,WSW,245,0.0,0.0,95,0.00,,---,0.00,VWS V14.01,2013-02-22 05:41:00,
2013-02-22 00:47:00,66.8,65.3,30.05,WSW,245,0.0,0.0,95,0.00,,---,0.00,VWS V14.01,2013-02-22 05:47:00,
2013-02-22 00:52:00,66.8,65.3,30.05,WSW,245,0.0,0.0,95,0.00,,---,0.00,VWS V14.01,2013-02-22 05:52:00,
2013-02-22 00:57:00,66.8,65.6,30.05,WSW,245,0.0,0.0,96,0.00,,---,0.00,VWS V14.01,2013-02-22 05:57:00,
2013-02-22 01:02:00,66.9,65.7,30.05,SW,218,0.0,0.0,96,0.00,,---,0.00,VWS V14.01,2013-02-22 06:02:00,
2013-02-22 01:07:00,66.9,65.7,30.05,SW,218,0.0,0.0,96,0.00,,---,0.00,VWS V14.01,2013-02-22 06:07:00,
2013-02-22 01:12:00,66.9,65.7,30.05,SW,218,0.0,0.0,96,0.00,,---,0.00,VWS V14.01,2013-02-22 06:12:00,
2013-02-22 01:17:00,66.9,65.7,30.05,SW,218,0.0,0.0,96,0.00,,---,0.00,VWS V14.01,2013-02-22 06:17:00,
2013-02-22 01:22:00,66.9,65.7,30.05,SW,218,0.0,0.0,96,0.00,,---,0.00,VWS V14.01,2013-02-22 06:22:00,
2013-02-22 01:27:00,66.9,65.7,30.05,SW,217,0.0,1.0,96,0.00,,---,0.00,VWS V14.01,2013-02-22 06:27:00,
2013-02-22 01:32:00,66.8,65.6,30.04,SW,217,0.0,0.0,96,0.00,,---,0.00,VWS V14.01,2013-02-22 06:32:00,
2013-02-22 01:37:00,66.7,65.5,30.04,SW,217,0.0,0.0,96,0.00,,---,0.00,VWS V14.01,2013-02-22 06:37:00,
2013-02-22 01:42:00,66.7,65.5,30.04,SW,217,0.0,1.0,96,0.00,,---,0.00,VWS V14.01,2013-02-22 06:42:00,
2013-02-22 01:48:00,66.6,65.4,30.04,SW,217,0.0,1.0,96,0.00,,---,0.00,VWS V14.01,2013-02-22 06:48:00,
2013-02-22 01:53:00,66.7,65.5,30.04,SW,217,0.0,1.0,96,0.00,,---,0.00,VWS V14.01,2013-02-22 06:53:00,
2013-02-22 01:58:00,66.4,65.2,30.04,SW,217,0.0,1.0,96,0.00,,---,0.00,VWS V14.01,2013-02-22 06:58:00,
2013-02-22 02:03:00,66.2,65.0,30.04,SW,217,0.0,0.0,96,0.00,,---,0.00,VWS V14.01,2013-02-22 07:03:00,
2013-02-22 02:08:00,66.1,64.9,30.04,SW,217,0.0,0.0,96,0.00,,---,0.00,VWS V14.01,2013-02-22 07:08:00,
2013-02-22 02:13:00,66.1,65.2,30.04,SW,218,0.0,0.0,97,0.00,,---,0.00,VWS V14.01,2013-02-22 07:13:00,
2013-02-22 02:18:00,66.1,64.9,30.04,SW,219,0.0,0.0,96,0.00,,---,0.00,VWS V14.01,2013-02-22 07:18:00,
2013-02-22 02:23:00,66.0,64.8,30.04,SW,218,0.0,1.0,96,0.00,,---,0.00,VWS V14.01,2013-02-22 07:23:00,
2013-02-22 02:28:00,65.8,64.6,30.04,SW,218,0.0,1.0,96,0.00,,---,0.00,VWS V14.01,2013-02-22 07:28:00,
2013-02-22 02:33:00,65.7,64.5,30.04,SW,218,0.0,0.0,96,0.00,,---,0.00,VWS V14.01,2013-02-22 07:33:00,
2013-02-22 02:39:00,65.7,64.8,30.04,SW,218,0.0,0.0,97,0.00,,---,0.00,VWS V14.01,2013-02-22 07:39:00,
2013-02-22 02:44:00,65.5,64.3,30.04,SW,218,0.0,0.0,96,0.00,,---,0.00,VWS V14.01,2013-02-22 07:44:00,
2013-02-22 02:49:00,65.3,64.1,30.04,SW,218,0.0,0.0,96,0.00,,---,0.00,VWS V14.01,2013-02-22 07:49:00,
2013-02-22 02:54:00,65.0,63.8,30.04,SW,218,0.0,0.0,96,0.00,,---,0.00,VWS V14.01,2013-02-22 07:54:00,
2013-02-22 02:59:00,64.8,63.9,30.04,SW,218,0.0,0.0,97,0.00,,---,0.00,VWS V14.01,2013-02-22 07:59:00,
2013-02-22 03:04:00,64.7,63.8,30.04,SW,218,0.0,0.0,97,0.00,,---,0.00,VWS V14.01,2013-02-22 08:04:00,
2013-02-22 03:09:00,64.5,63.3,30.04,SW,218,0.0,0.0,96,0.00,,---,0.00,VWS V14.01,2013-02-22 08:09:00,
2013-02-22 03:14:00,64.2,63.3,30.03,SW,218,0.0,0.0,97,0.00,,---,0.00,VWS V14.01,2013-02-22 08:14:00,
2013-02-22 03:19:00,64.1,63.2,30.03,SW,218,0.0,0.0,97,0.00,,---,0.00,VWS V14.01,2013-02-22 08:19:00,
2013-02-22 03:24:00,63.9,63.0,30.03,SW,218,0.0,0.0,97,0.00,,---,0.00,VWS V14.01,2013-02-22 08:24:00,
2013-02-22 03:30:00,63.7,62.8,30.03,SW,218,0.0,0.0,97,0.00,,---,0.00,VWS V14.01,2013-02-22 08:30:00,
2013-02-22 03:35:00,63.6,62.7,30.03,SW,219,0.0,0.0,97,0.00,,---,0.00,VWS V14.01,2013-02-22 08:35:00,
2013-02-22 03:40:00,63.5,62.6,30.03,SW,218,0.0,0.0,97,0.00,,---,0.00,VWS V14.01,2013-02-22 08:40:00,
2013-02-22 03:45:00,63.3,62.4,30.03,SW,218,0.0,0.0,97,0.00,,---,0.00,VWS V14.01,2013-02-22 08:45:00,
2013-02-22 03:50:00,63.1,62.2,30.03,SW,218,0.0,0.0,97,0.00,,---,0.00,VWS V14.01,2013-02-22 08:50:00,
2013-02-22 03:55:00,62.9,62.0,30.03,SW,218,0.0,0.0,97,0.00,,---,0.00,VWS V14.01,2013-02-22 08:55:00,
2013-02-22 04:00:00,62.7,61.8,30.03,SW,218,0.0,0.0,97,0.00,,---,0.00,VWS V14.01,2013-02-22 09:00:00,
2013-02-22 04:05:00,62.7,61.8,30.03,SW,218,0.0,0.0,97,0.00,,---,0.00,VWS V14.01,2013-02-22 09:05:00,
2013-02-22 04:10:00,62.6,61.7,30.03,SW,218,0.0,0.0,97,0.00,,---,0.00,VWS V14.01,2013-02-22 09:10:00,
2013-02-22 04:15:00,62.6,61.7,30.03,SW,219,0.0,0.0,97,0.00,,---,0.00,VWS V14.01,2013-02-22 09:15:00,
2013-02-22 04:20:00,62.5,61.6,30.03,SW,218,0.0,0.0,97,0.00,,---,0.00,VWS V14.01,2013-02-22 09:20:00,
2013-02-22 04:25:00,62.5,61.6,30.03,SW,218,0.0,0.0,97,0.00,,---,0.00,VWS V14.01,2013-02-22 09:25:00,
2013-02-22 04:31:00,62.3,61.4,30.03,SW,218,0.0,0.0,97,0.00,,---,0.00,VWS V14.01,2013-02-22 09:31:00,
2013-02-22 04:36:00,62.2,61.3,30.03,SW,218,0.0,0.0,97,0.00,,---,0.00,VWS V14.01,2013-02-22 09:36:00,
2013-02-22 04:41:00,61.9,61.0,30.04,SW,218,0.0,0.0,97,0.00,,---,0.00,VWS V14.01,2013-02-22 09:41:00,
2013-02-22 04:46:00,61.8,60.9,30.04,SW,218,0.0,0.0,97,0.00,,---,0.00,VWS V14.01,2013-02-22 09:46:00,
2013-02-22 04:51:00,61.6,60.7,30.04,SW,218,0.0,0.0,97,0.00,,---,0.00,VWS V14.01,2013-02-22 09:51:00,
2013-02-22 04:56:00,61.6,60.7,30.04,SW,218,0.0,0.0,97,0.00,,---,0.00,VWS V14.01,2013-02-22 09:56:00,
2013-02-22 05:01:00,61.8,61.2,30.04,SW,218,0.0,0.0,98,0.00,,---,0.00,VWS V14.01,2013-02-22 10:01:00,
2013-02-22 05:06:00,62.0,61.4,30.04,SW,218,0.0,0.0,98,0.00,,---,0.00,VWS V14.01,2013-02-22 10:06:00,
2013-02-22 05:11:00,62.1,61.5,30.05,SW,218,0.0,0.0,98,0.00,,---,0.00,VWS V14.01,2013-02-22 10:11:00,
2013-02-22 05:16:00,62.2,61.6,30.05,SW,218,0.0,0.0,98,0.00,,---,0.00,VWS V14.01,2013-02-22 10:16:00,
2013-02-22 05:21:00,62.2,61.6,30.05,SW,218,0.0,0.0,98,0.00,,---,0.00,VWS V14.01,2013-02-22 10:21:00,
2013-02-22 05:26:00,62.1,61.5,30.05,SW,218,0.0,0.0,98,0.00,,---,0.00,VWS V14.01,2013-02-22 10:26:00,
2013-02-22 05:31:00,61.8,60.9,30.05,SW,219,0.0,0.0,97,0.00,,---,0.00,VWS V14.01,2013-02-22 10:31:00,
2013-02-22 05:36:00,61.7,60.8,30.06,SW,218,0.0,0.0,97,0.00,,---,0.00,VWS V14.01,2013-02-22 10:36:00,
2013-02-22 05:42:00,61.5,60.6,30.06,SW,218,0.0,0.0,97,0.00,,---,0.00,VWS V14.01,2013-02-22 10:42:00,
2013-02-22 05:47:00,61.3,60.4,30.06,SW,218,0.0,0.0,97,0.00,,---,0.00,VWS V14.01,2013-02-22 10:47:00,
2013-02-22 05:52:00,61.1,60.2,30.06,SW,219,0.0,0.0,97,0.00,,---,0.00,VWS V14.01,2013-02-22 10:52:00,
2013-02-22 05:57:00,60.9,60.3,30.06,SW,218,0.0,0.0,98,0.00,,---,0.00,VWS V14.01,2013-02-22 10:57:00,
2013-02-22 06:02:00,61.1,60.5,30.06,SW,218,0.0,0.0,98,0.00,,---,0.00,VWS V14.01,2013-02-22 11:02:00,
2013-02-22 06:07:00,61.1,60.5,30.06,SW,218,0.0,0.0,98,0.00,,---,0.00,VWS V14.01,2013-02-22 11:07:00,
2013-02-22 06:12:00,61.1,60.5,30.06,SW,218,0.0,0.0,98,0.00,,---,0.00,VWS V14.01,2013-02-22 11:12:00,
2013-02-22 06:17:00,61.1,60.5,30.07,SW,218,0.0,0.0,98,0.00,,---,0.00,VWS V14.01,2013-02-22 11:17:00,
2013-02-22 06:22:00,61.0,60.4,30.07,SW,218,0.0,0.0,98,0.00,,---,0.00,VWS V14.01,2013-02-22 11:22:00,
2013-02-22 06:27:00,61.0,60.4,30.07,SW,218,0.0,0.0,98,0.00,,---,0.00,VWS V14.01,2013-02-22 11:27:00,
2013-02-22 06:32:00,60.9,60.3,30.07,SW,218,0.0,0.0,98,0.00,,---,0.00,VWS V14.01,2013-02-22 11:32:00,
2013-02-22 06:37:00,60.9,60.3,30.07,SW,218,0.0,0.0,98,0.00,,---,0.00,VWS V14.01,2013-02-22 11:37:00,
2013-02-22 06:42:00,60.7,60.1,30.07,SW,218,0.0,0.0,98,0.00,,---,0.00,VWS V14.01,2013-02-22 11:42:00,
2013-02-22 06:47:00,60.7,60.1,30.07,SW,218,0.0,0.0,98,0.00,,---,0.00,VWS V14.01,2013-02-22 11:47:00,
2013-02-22 06:52:00,60.4,59.8,30.07,SW,219,0.0,0.0,98,0.00,,---,0.00,VWS V14.01,2013-02-22 11:52:00,
2013-02-22 06:57:00,60.3,59.7,30.07,SW,218,0.0,0.0,98,0.00,,---,0.00,VWS V14.01,2013-02-22 11:57:00,
2013-02-22 07:03:00,60.1,59.5,30.08,SW,218,0.0,0.0,98,0.00,,---,0.00,VWS V14.01,2013-02-22 12:03:00,
2013-02-22 07:08:00,60.2,59.6,30.08,SW,218,0.0,0.0,98,0.00,,---,0.00,VWS V14.01,2013-02-22 12:08:00,
2013-02-22 07:13:00,60.5,59.9,30.08,SW,218,0.0,0.0,98,0.00,,---,0.00,VWS V14.01,2013-02-22 12:13:00,
2013-02-22 07:18:00,60.6,60.0,30.08,SW,218,0.0,0.0,98,0.00,,---,0.00,VWS V14.01,2013-02-22 12:18:00,
2013-02-22 07:23:00,60.6,60.0,30.08,SW,218,0.0,0.0,98,0.00,,---,0.00,VWS V14.01,2013-02-22 12:23:00,
2013-02-22 07:28:00,60.7,60.1,30.08,SW,218,0.0,0.0,98,0.00,,---,0.00,VWS V14.01,2013-02-22 12:28:00,
2013-02-22 07:33:00,60.7,60.1,30.08,SW,218,0.0,0.0,98,0.00,,---,0.00,VWS V14.01,2013-02-22 12:33:00,
2013-02-22 07:38:00,61.0,60.4,30.08,SW,217,0.0,0.0,98,0.00,,---,0.00,VWS V14.01,2013-02-22 12:38:00,
2013-02-22 07:43:00,61.3,61.0,30.09,SW,217,0.0,0.0,99,0.00,,---,0.00,VWS V14.01,2013-02-22 12:43:00,
2013-02-22 07:48:00,61.8,61.5,30.09,SW,217,0.0,0.0,99,0.00,,---,0.00,VWS V14.01,2013-02-22 12:48:00,
2013-02-22 07:53:00,62.5,62.2,30.09,SW,217,0.0,0.0,99,0.00,,---,0.00,VWS V14.01,2013-02-22 12:53:00,
2013-02-22 07:58:00,63.3,63.0,30.09,SW,217,0.0,0.0,99,0.00,,---,0.00,VWS V14.01,2013-02-22 12:58:00,
2013-02-22 08:03:00,64.3,64.0,30.09,SW,218,0.0,0.0,99,0.00,,---,0.00,VWS V14.01,2013-02-22 13:03:00,
2013-02-22 08:08:00,64.9,64.6,30.09,SW,217,0.0,0.0,99,0.00,,---,0.00,VWS V14.01,2013-02-22 13:08:00,
2013-02-22 08:13:00,65.6,65.3,30.09,SW,217,0.0,0.0,99,0.00,,---,0.00,VWS V14.01,2013-02-22 13:13:00,
2013-02-22 08:18:00,66.3,66.0,30.09,SW,217,0.0,0.0,99,0.00,,---,0.00,VWS V14.01,2013-02-22 13:18:00,
2013-02-22 08:24:00,67.1,66.8,30.10,SW,217,0.0,0.0,99,0.00,,---,0.00,VWS V14.01,2013-02-22 13:24:00,
2013-02-22 08:29:00,67.6,67.3,30.10,SW,217,0.0,0.0,99,0.00,,---,0.00,VWS V14.01,2013-02-22 13:29:00,
2013-02-22 08:34:00,68.0,67.7,30.10,SW,217,0.0,0.0,99,0.00,,---,0.00,VWS V14.01,2013-02-22 13:34:00,
2013-02-22 08:39:00,68.4,68.1,30.10,SW,217,0.0,0.0,99,0.00,,---,0.00,VWS V14.01,2013-02-22 13:39:00,
2013-02-22 08:44:00,69.1,68.8,30.11,SSE,150,0.0,1.0,99,0.00,,---,0.00,VWS V14.01,2013-02-22 13:44:00,
2013-02-22 08:49:00,69.6,69.3,30.10,SE,146,0.0,1.0,99,0.00,,---,0.00,VWS V14.01,2013-02-22 13:49:00,
2013-02-22 08:54:00,69.9,69.6,30.11,SSE,148,0.0,1.0,99,0.00,,---,0.00,VWS V14.01,2013-02-22 13:54:00,
2013-02-22 08:59:00,70.2,69.9,30.10,SSE,156,0.0,1.0,99,0.00,,---,0.00,VWS V14.01,2013-02-22 13:59:00,
2013-02-22 09:04:00,70.6,70.0,30.10,SSE,160,0.0,0.0,98,0.00,,---,0.00,VWS V14.01,2013-02-22 14:04:00,
2013-02-22 09:09:00,71.1,70.5,30.10,SSE,147,0.0,1.0,98,0.00,,---,0.00,VWS V14.01,2013-02-22 14:09:00,
2013-02-22 09:14:00,71.5,70.3,30.10,SW,215,1.0,4.0,96,0.00,,---,0.00,VWS V14.01,2013-02-22 14:14:00,
2013-02-22 09:19:00,72.3,70.8,30.10,SE,141,4.0,4.0,95,0.00,,---,0.00,VWS V14.01,2013-02-22 14:19:00,
2013-02-22 09:24:00,73.1,70.6,30.10,SSE,160,1.0,4.0,92,0.00,,---,0.00,VWS V14.01,2013-02-22 14:24:00,
2013-02-22 09:29:00,73.5,70.4,30.10,SE,136,0.0,5.0,90,0.00,,---,0.00,VWS V14.01,2013-02-22 14:29:00,
2013-02-22 09:34:00,74.2,70.4,30.10,SSE,156,2.0,5.0,88,0.00,,---,0.00,VWS V14.01,2013-02-22 14:34:00,
2013-02-22 09:39:00,74.5,70.0,30.10,SE,142,1.0,5.0,86,0.00,,---,0.00,VWS V14.01,2013-02-22 14:39:00,
2013-02-22 09:44:00,74.8,70.0,30.10,SE,145,0.0,8.0,85,0.00,,---,0.00,VWS V14.01,2013-02-22 14:44:00,
2013-02-22 09:49:00,75.2,70.0,30.10,ESE,110,2.0,8.0,84,0.00,,---,0.00,VWS V14.01,2013-02-22 14:49:00,
2013-02-22 09:54:00,75.4,70.2,30.10,SSW,200,3.0,8.0,84,0.00,,---,0.00,VWS V14.01,2013-02-22 14:54:00,
2013-02-22 10:00:00,75.5,69.6,30.10,ESE,116,2.0,8.0,82,0.00,,---,0.00,VWS V14.01,2013-02-22 15:00:00,
2013-02-22 10:05:00,76.1,69.8,30.10,SSE,153,3.0,6.0,81,0.00,,---,0.00,VWS V14.01,2013-02-22 15:05:00,
2013-02-22 10:10:00,77.0,69.6,30.10,South,174,2.0,6.0,78,0.00,,---,0.00,VWS V14.01,2013-02-22 15:10:00,
2013-02-22 10:15:00,77.5,70.1,30.10,SE,133,1.0,6.0,78,0.00,,---,0.00,VWS V14.01,2013-02-22 15:15:00,
2013-02-22 10:20:00,78.3,69.3,30.10,SE,140,2.0,8.0,74,0.00,,---,0.00,VWS V14.01,2013-02-22 15:20:00,
2013-02-22 10:25:00,78.1,69.5,30.10,South,181,3.0,8.0,75,0.00,,---,0.00,VWS V14.01,2013-02-22 15:25:00,
2013-02-22 10:30:00,78.4,69.8,30.10,SW,232,2.0,8.0,75,0.00,,---,0.00,VWS V14.01,2013-02-22 15:30:00,
2013-02-22 10:35:00,78.8,69.0,30.10,SSE,153,0.0,6.0,72,0.00,,---,0.00,VWS V14.01,2013-02-22 15:35:00,
2013-02-22 10:40:00,79.0,69.6,30.10,SE,143,2.0,6.0,73,0.00,,---,0.00,VWS V14.01,2013-02-22 15:40:00,
2013-02-22 10:45:00,79.4,69.6,30.09,SE,134,1.0,6.0,72,0.00,,---,0.00,VWS V14.01,2013-02-22 15:45:00,
2013-02-22 10:50:00,79.8,69.2,30.09,SE,136,0.0,6.0,70,0.00,,---,0.00,VWS V14.01,2013-02-22 15:50:00,
2013-02-22 10:55:00,80.0,69.3,30.09,SSE,150,0.0,6.0,70,0.00,,---,0.00,VWS V14.01,2013-02-22 15:55:00,
2013-02-22 11:00:00,79.8,69.2,30.09,SSE,158,1.0,3.0,70,0.00,,---,0.00,VWS V14.01,2013-02-22 16:00:00,
2013-02-22 11:06:00,79.5,68.4,30.09,SW,231,2.0,4.0,69,0.00,,---,0.00,VWS V14.01,2013-02-22 16:06:00,
2013-02-22 11:11:00,79.3,68.7,30.09,WSW,257,1.0,4.0,70,0.00,,---,0.00,VWS V14.01,2013-02-22 16:11:00,
2013-02-22 11:16:00,79.6,69.8,30.09,SSE,156,1.0,4.0,72,0.00,,---,0.00,VWS V14.01,2013-02-22 16:16:00,
2013-02-22 11:21:00,80.0,68.9,30.09,ESE,119,3.0,8.0,69,0.00,,---,0.00,VWS V14.01,2013-02-22 16:21:00,
2013-02-22 11:26:00,80.2,70.8,30.09,SSE,148,1.0,8.0,73,0.00,,---,0.00,VWS V14.01,2013-02-22 16:26:00,
2013-02-22 11:31:00,79.9,70.9,30.08,ENE,58,4.0,10.0,74,0.00,,---,0.00,VWS V14.01,2013-02-22 16:31:00,
2013-02-22 11:36:00,79.1,70.5,30.08,ENE,76,2.0,10.0,75,0.00,,---,0.00,VWS V14.01,2013-02-22 16:36:00,
2013-02-22 11:41:00,79.0,70.8,30.08,SSE,150,0.0,10.0,76,0.00,,---,0.00,VWS V14.01,2013-02-22 16:41:00,
2013-02-22 11:46:00,78.9,70.7,30.08,ESE,109,3.0,10.0,76,0.00,,---,0.00,VWS V14.01,2013-02-22 16:46:00,
2013-02-22 11:51:00,78.5,70.3,30.08,SSE,155,2.0,10.0,76,0.00,,---,0.00,VWS V14.01,2013-02-22 16:51:00,
2013-02-22 11:57:00,78.4,70.6,30.08,SSE,155,1.0,10.0,77,0.00,,---,0.00,VWS V14.01,2013-02-22 16:57:00,
2013-02-22 12:02:00,79.6,71.4,30.08,East,86,2.0,3.0,76,0.00,,---,0.00,VWS V14.01,2013-02-22 17:02:00,
2013-02-22 12:07:00,79.7,71.1,30.08,East,94,0.0,4.0,75,0.00,,---,0.00,VWS V14.01,2013-02-22 17:07:00,
2013-02-22 12:12:00,79.3,71.1,30.07,East,86,3.0,4.0,76,0.00,,---,0.00,VWS V14.01,2013-02-22 17:12:00,
2013-02-22 12:17:00,79.0,70.8,30.07,East,101,2.0,6.0,76,0.00,,---,0.00,VWS V14.01,2013-02-22 17:17:00,
2013-02-22 12:22:00,78.5,70.7,30.07,ENE,65,3.0,7.0,77,0.00,,---,0.00,VWS V14.01,2013-02-22 17:22:00,
2013-02-22 12:27:00,78.4,71.0,30.07,SE,134,1.0,7.0,78,0.00,,---,0.00,VWS V14.01,2013-02-22 17:27:00,
2013-02-22 12:32:00,78.5,71.1,30.06,East,90,1.0,4.0,78,0.00,,---,0.00,VWS V14.01,2013-02-22 17:32:00,
2013-02-22 12:37:00,79.5,71.3,30.06,SSW,204,2.0,6.0,76,0.00,,---,0.00,VWS V14.01,2013-02-22 17:37:00,
2013-02-22 12:42:00,80.1,71.5,30.06,SE,145,2.0,10.0,75,0.00,,---,0.00,VWS V14.01,2013-02-22 17:42:00,
2013-02-22 12:47:00,80.6,71.6,30.06,SE,143,3.0,11.0,74,0.00,,---,0.00,VWS V14.01,2013-02-22 17:47:00,
2013-02-22 12:53:00,80.6,71.6,30.06,NE,51,2.0,11.0,74,0.00,,---,0.00,VWS V14.01,2013-02-22 17:53:00,
2013-02-22 12:58:00,80.4,71.8,30.06,NE,43,2.0,11.0,75,0.00,,---,0.00,VWS V14.01,2013-02-22 17:58:00,
2013-02-22 13:03:00,80.2,71.9,30.05,South,169,2.0,5.0,76,0.00,,---,0.00,VWS V14.01,2013-02-22 18:03:00,
2013-02-22 13:08:00,81.1,72.0,30.05,SSW,207,2.0,5.0,74,0.00,,---,0.00,VWS V14.01,2013-02-22 18:08:00,
2013-02-22 13:13:00,81.3,71.8,30.05,SE,124,3.0,7.0,73,0.00,,---,0.00,VWS V14.01,2013-02-22 18:13:00,
2013-02-22 13:18:00,80.8,71.3,30.05,ESE,110,4.0,7.0,73,0.00,,---,0.00,VWS V14.01,2013-02-22 18:18:00,
2013-02-22 13:23:00,80.7,71.7,30.05,South,187,1.0,7.0,74,0.00,,---,0.00,VWS V14.01,2013-02-22 18:23:00,
2013-02-22 13:28:00,81.2,72.1,30.04,NNE,26,4.0,7.0,74,0.00,,---,0.00,VWS V14.01,2013-02-22 18:28:00,
2013-02-22 13:33:00,81.2,71.7,30.05,East,80,3.0,7.0,73,0.00,,---,0.00,VWS V14.01,2013-02-22 18:33:00,
2013-02-22 13:38:00,80.8,71.3,30.05,NNW,327,3.0,8.0,73,0.00,,---,0.00,VWS V14.01,2013-02-22 18:38:00,
2013-02-22 13:44:00,80.4,71.4,30.04,East,89,2.0,8.0,74,0.00,,---,0.00,VWS V14.01,2013-02-22 18:44:00,
2013-02-22 13:49:00,80.6,71.6,30.04,NNE,30,2.0,8.0,74,0.00,,---,0.00,VWS V14.01,2013-02-22 18:49:00,
2013-02-22 13:54:00,80.7,72.0,30.04,ENE,73,2.0,8.0,75,0.00,,---,0.00,VWS V14.01,2013-02-22 18:54:00,
2013-02-22 13:59:00,80.2,71.6,30.04,SE,128,3.0,8.0,75,0.00,,---,0.00,VWS V14.01,2013-02-22 18:59:00,
2013-02-22 14:04:00,79.7,71.1,30.04,SE,143,1.0,5.0,75,0.00,,---,0.00,VWS V14.01,2013-02-22 19:04:00,
2013-02-22 14:09:00,79.4,71.2,30.04,East,80,0.0,9.0,76,0.00,,---,0.00,VWS V14.01,2013-02-22 19:09:00,
2013-02-22 14:14:00,79.6,71.4,30.03,SE,145,2.0,9.0,76,0.00,,---,0.00,VWS V14.01,2013-02-22 19:14:00,
2013-02-22 14:19:00,79.3,70.7,30.03,NE,49,4.0,9.0,75,0.00,,---,0.00,VWS V14.01,2013-02-22 19:19:00,
2013-02-22 14:24:00,78.9,70.7,30.03,ESE,112,1.0,9.0,76,0.00,,---,0.00,VWS V14.01,2013-02-22 19:24:00,
2013-02-22 14:30:00,78.9,71.1,30.03,NE,56,2.0,9.0,77,0.00,,---,0.00,VWS V14.01,2013-02-22 19:30:00,
2013-02-22 14:35:00,79.1,71.3,30.03,ESE,103,2.0,5.0,77,0.00,,---,0.00,VWS V14.01,2013-02-22 19:35:00,
2013-02-22 14:40:00,79.5,71.3,30.03,ESE,113,3.0,8.0,76,0.00,,---,0.00,VWS V14.01,2013-02-22 19:40:00,
2013-02-22 14:45:00,79.3,71.5,30.03,ENE,64,2.0,8.0,77,0.00,,---,0.00,VWS V14.01,2013-02-22 19:45:00,
2013-02-22 14:50:00,79.3,71.5,30.03,WSW,238,0.0,8.0,77,0.00,,---,0.00,VWS V14.01,2013-02-22 19:50:00,
2013-02-22 14:55:00,79.0,71.2,30.03,SE,129,1.0,8.0,77,0.00,,---,0.00,VWS V14.01,2013-02-22 19:55:00,
2013-02-22 15:00:00,78.4,71.0,30.02,SSW,194,1.0,8.0,78,0.00,,---,0.00,VWS V14.01,2013-02-22 20:00:00,
2013-02-22 15:05:00,78.4,71.3,30.03,ESE,113,2.0,4.0,79,0.00,,---,0.00,VWS V14.01,2013-02-22 20:05:00,
2013-02-22 15:10:00,79.0,71.6,30.02,ENE,74,3.0,7.0,78,0.00,,---,0.00,VWS V14.01,2013-02-22 20:10:00,
2013-02-22 15:15:00,79.6,71.8,30.02,SE,134,0.0,8.0,77,0.00,,---,0.00,VWS V14.01,2013-02-22 20:15:00,
2013-02-22 15:21:00,79.9,71.7,30.02,NNE,30,3.0,8.0,76,0.00,,---,0.00,VWS V14.01,2013-02-22 20:21:00,
2013-02-22 15:26:00,80.4,71.8,30.02,NE,53,4.0,8.0,75,0.00,,---,0.00,VWS V14.01,2013-02-22 20:26:00,
2013-02-22 15:31:00,80.2,71.6,30.02,WSW,248,3.0,8.0,75,0.00,,---,0.00,VWS V14.01,2013-02-22 20:31:00,
2013-02-22 15:36:00,79.8,71.6,30.02,ESE,105,2.0,5.0,76,0.00,,---,0.00,VWS V14.01,2013-02-22 20:36:00,
2013-02-22 15:41:00,79.6,71.8,30.02,ESE,122,3.0,6.0,77,0.00,,---,0.00,VWS V14.01,2013-02-22 20:41:00,
2013-02-22 15:46:00,79.5,71.7,30.02,SSW,204,2.0,6.0,77,0.00,,---,0.00,VWS V14.01,2013-02-22 20:46:00,
2013-02-22 15:51:00,79.8,71.9,30.02,SE,134,1.0,6.0,77,0.00,,---,0.00,VWS V14.01,2013-02-22 20:51:00,
2013-02-22 15:56:00,79.9,71.7,30.02,ESE,123,2.0,6.0,76,0.00,,---,0.00,VWS V14.01,2013-02-22 20:56:00,
2013-02-22 16:01:00,79.9,71.3,30.01,NE,54,3.0,6.0,75,0.00,,---,0.00,VWS V14.01,2013-02-22 21:01:00,
2013-02-22 16:06:00,79.8,71.6,30.01,SE,126,1.0,4.0,76,0.00,,---,0.00,VWS V14.01,2013-02-22 21:06:00,
2013-02-22 16:11:00,80.0,71.8,30.01,SE,128,1.0,4.0,76,0.00,,---,0.00,VWS V14.01,2013-02-22 21:11:00,
2013-02-22 16:16:00,80.1,71.9,30.02,ESE,120,1.0,4.0,76,0.00,,---,0.00,VWS V14.01,2013-02-22 21:16:00,
2013-02-22 16:21:00,79.7,71.5,30.01,East,86,1.0,7.0,76,0.00,,---,0.00,VWS V14.01,2013-02-22 21:21:00,
2013-02-22 16:27:00,79.2,71.4,30.02,South,181,4.0,7.0,77,0.00,,---,0.00,VWS V14.01,2013-02-22 21:27:00,
2013-02-22 16:32:00,78.6,71.2,30.02,SE,126,4.0,5.0,78,0.00,,---,0.00,VWS V14.01,2013-02-22 21:32:00,
2013-02-22 16:37:00,78.0,71.3,30.02,SE,134,3.0,8.0,80,0.00,,---,0.00,VWS V14.01,2013-02-22 21:37:00,
2013-02-22 16:42:00,77.9,71.6,30.02,SE,145,2.0,8.0,81,0.00,,---,0.00,VWS V14.01,2013-02-22 21:42:00,
2013-02-22 16:47:00,77.6,71.3,30.02,East,85,2.0,8.0,81,0.00,,---,0.00,VWS V14.01,2013-02-22 21:47:00,
2013-02-22 16:52:00,77.4,71.1,30.02,SSE,148,6.0,8.0,81,0.00,,---,0.00,VWS V14.01,2013-02-22 21:52:00,
2013-02-22 16:57:00,77.2,71.3,30.02,SSE,148,2.0,8.0,82,0.00,,---,0.00,VWS V14.01,2013-02-22 21:57:00,
2013-02-22 17:02:00,77.1,71.2,30.02,ESE,108,1.0,3.0,82,0.00,,---,0.00,VWS V14.01,2013-02-22 22:02:00,
2013-02-22 17:07:00,77.0,71.1,30.02,NE,37,1.0,5.0,82,0.00,,---,0.00,VWS V14.01,2013-02-22 22:07:00,
2013-02-22 17:12:00,76.8,70.9,30.02,SE,135,0.0,5.0,82,0.00,,---,0.00,VWS V14.01,2013-02-22 22:12:00,
2013-02-22 17:17:00,76.6,71.1,30.02,SE,126,1.0,8.0,83,0.00,,---,0.00,VWS V14.01,2013-02-22 22:17:00,
2013-02-22 17:23:00,76.4,71.2,30.02,NE,48,1.0,1.0,84,0.00,,---,0.00,VWS V14.01,2013-02-22 22:23:00,
2013-02-22 17:28:00,76.1,70.9,30.02,SSE,150,1.0,5.0,84,0.00,,---,0.00,VWS V14.01,2013-02-22 22:28:00,
2013-02-22 17:33:00,75.8,70.6,30.02,ENE,57,1.0,3.0,84,0.00,,---,0.00,VWS V14.01,2013-02-22 22:33:00,
2013-02-22 17:38:00,75.5,70.7,30.02,NNE,32,0.0,4.0,85,0.00,,---,0.00,VWS V14.01,2013-02-22 22:38:00,
2013-02-22 17:43:00,75.2,70.4,30.02,ESE,115,2.0,4.0,85,0.00,,---,0.00,VWS V14.01,2013-02-22 22:43:00,
2013-02-22 17:48:00,74.9,70.4,30.02,ESE,109,2.0,5.0,86,0.00,,---,0.00,VWS V14.01,2013-02-22 22:48:00,
2013-02-22 17:53:00,74.7,70.6,30.02,SE,139,2.0,8.0,87,0.00,,---,0.00,VWS V14.01,2013-02-22 22:53:00,
2013-02-22 17:58:00,74.4,70.3,30.02,East,79,1.0,8.0,87,0.00,,---,0.00,VWS V14.01,2013-02-22 22:58:00,
2013-02-22 18:03:00,74.2,70.4,30.02,ENE,65,2.0,2.0,88,0.00,,---,0.00,VWS V14.01,2013-02-22 23:03:00,
2013-02-22 18:08:00,73.9,70.1,30.02,North,1,1.0,3.0,88,0.00,,---,0.00,VWS V14.01,2013-02-22 23:08:00,
2013-02-22 18:13:00,73.7,70.3,30.02,SE,133,1.0,8.0,89,0.00,,---,0.00,VWS V14.01,2013-02-22 23:13:00,
2013-02-22 18:18:00,73.6,70.2,30.02,ESE,111,1.0,8.0,89,0.00,,---,0.00,VWS V14.01,2013-02-22 23:18:00,
2013-02-22 18:23:00,73.5,70.1,30.03,SE,134,3.0,8.0,89,0.00,,---,0.00,VWS V14.01,2013-02-22 23:23:00,
2013-02-22 18:28:00,73.3,70.2,30.03,ESE,120,1.0,8.0,90,0.00,,---,0.00,VWS V14.01,2013-02-22 23:28:00,
2013-02-22 18:33:00,73.3,70.2,30.03,SSW,204,1.0,2.0,90,0.00,,---,0.00,VWS V14.01,2013-02-22 23:33:00,
2013-02-22 18:39:00,73.2,70.1,30.03,ESE,107,0.0,4.0,90,0.00,,---,0.00,VWS V14.01,2013-02-22 23:39:00,
2013-02-22 18:44:00,73.1,70.3,30.03,ESE,123,2.0,4.0,91,0.00,,---,0.00,VWS V14.01,2013-02-22 23:44:00,
2013-02-22 18:49:00,73.0,70.2,30.03,ESE,105,1.0,4.0,91,0.00,,---,0.00,VWS V14.01,2013-02-22 23:49:00,
2013-02-22 18:54:00,72.9,70.1,30.03,ESE,122,0.0,4.0,91,0.00,,---,0.00,VWS V14.01,2013-02-22 23:54:00,
2013-02-22 18:59:00,72.9,70.1,30.03,SE,135,1.0,5.0,91,0.00,,---,0.00,VWS V14.01,2013-02-22 23:59:00,
2013-02-22 19:04:00,72.9,70.1,30.03,ENE,75,1.0,4.0,91,0.00,,---,0.00,VWS V14.01,2013-02-23 00:04:00,
2013-02-22 19:09:00,72.9,70.8,30.04,SE,134,1.0,4.0,93,0.00,,---,0.00,VWS V14.01,2013-02-23 00:09:00,
2013-02-22 19:14:00,72.9,70.1,30.04,ESE,107,0.0,4.0,91,0.00,,---,0.00,VWS V14.01,2013-02-23 00:14:00,
2013-02-22 19:19:00,72.9,70.1,30.04,SE,142,1.0,4.0,91,0.00,,---,0.00,VWS V14.01,2013-02-23 00:19:00,
2013-02-22 19:24:00,72.9,70.1,30.04,ESE,105,0.0,4.0,91,0.00,,---,0.00,VWS V14.01,2013-02-23 00:24:00,
2013-02-22 19:29:00,72.9,70.1,30.04,SE,136,1.0,4.0,91,0.00,,---,0.00,VWS V14.01,2013-02-23 00:29:00,
2013-02-22 19:34:00,72.9,70.1,30.05,SE,141,0.0,4.0,91,0.00,,---,0.00,VWS V14.01,2013-02-23 00:34:00,
2013-02-22 19:39:00,72.9,70.1,30.05,ESE,113,1.0,4.0,91,0.00,,---,0.00,VWS V14.01,2013-02-23 00:39:00,
2013-02-22 19:44:00,72.8,70.0,30.05,ESE,120,1.0,4.0,91,0.00,,---,0.00,VWS V14.01,2013-02-23 00:44:00,
2013-02-22 19:50:00,72.8,70.0,30.05,East,93,2.0,4.0,91,0.00,,---,0.00,VWS V14.01,2013-02-23 00:50:00,
2013-02-22 19:55:00,72.8,70.3,30.05,ESE,123,0.0,4.0,92,0.00,,---,0.00,VWS V14.01,2013-02-23 00:55:00,
2013-02-22 19:59:00,72.8,70.3,30.05,East,92,1.0,4.0,92,0.00,,---,0.00,VWS V14.01,2013-02-23 00:59:00,
2013-02-22 20:05:00,72.8,70.3,30.05,SE,131,1.0,1.0,92,0.00,,---,0.00,VWS V14.01,2013-02-23 01:05:00,
2013-02-22 20:10:00,72.7,70.2,30.05,ESE,122,0.0,4.0,92,0.00,,---,0.00,VWS V14.01,2013-02-23 01:10:00,
2013-02-22 20:15:00,72.7,70.2,30.05,East,98,0.0,4.0,92,0.00,,---,0.00,VWS V14.01,2013-02-23 01:15:00,
2013-02-22 20:20:00,72.6,70.2,30.05,SE,131,1.0,4.0,92,0.00,,---,0.00,VWS V14.01,2013-02-23 01:20:00,
2013-02-22 20:25:00,72.6,70.2,30.05,ESE,120,0.0,4.0,92,0.00,,---,0.00,VWS V14.01,2013-02-23 01:25:00,
2013-02-22 20:30:00,72.6,70.2,30.05,SE,126,0.0,4.0,92,0.00,,---,0.00,VWS V14.01,2013-02-23 01:30:00,
2013-02-22 20:35:00,72.5,70.1,30.05,ESE,123,0.0,2.0,92,0.00,,---,0.00,VWS V14.01,2013-02-23 01:35:00,
2013-02-22 20:40:00,72.6,70.2,30.05,SE,126,1.0,2.0,92,0.00,,---,0.00,VWS V14.01,2013-02-23 01:40:00,
2013-02-22 20:45:00,72.5,70.1,30.05,ESE,119,1.0,2.0,92,0.00,,---,0.00,VWS V14.01,2013-02-23 01:45:00,
2013-02-22 20:50:00,72.5,70.1,30.05,ESE,119,1.0,2.0,92,0.00,,---,0.00,VWS V14.01,2013-02-23 01:50:00,
2013-02-22 20:55:00,72.4,69.9,30.05,ENE,75,1.0,3.0,92,0.00,,---,0.00,VWS V14.01,2013-02-23 01:55:00,
2013-02-22 21:00:00,72.4,69.9,30.05,East,94,0.0,3.0,92,0.00,,---,0.00,VWS V14.01,2013-02-23 02:00:00,
2013-02-22 21:05:00,72.3,70.2,30.05,SSW,207,0.0,3.0,93,0.00,,---,0.00,VWS V14.01,2013-02-23 02:05:00,
2013-02-22 21:10:00,72.2,70.1,30.06,ESE,103,0.0,3.0,93,0.00,,---,0.00,VWS V14.01,2013-02-23 02:10:00,
2013-02-22 21:15:00,72.1,70.0,30.06,SE,128,2.0,3.0,93,0.00,,---,0.00,VWS V14.01,2013-02-23 02:15:00,
2013-02-22 21:20:00,72.1,70.0,30.06,SSE,150,0.0,3.0,93,0.00,,---,0.00,VWS V14.01,2013-02-23 02:20:00,
2013-02-22 21:26:00,72.0,69.9,30.06,SE,130,0.0,3.0,93,0.00,,---,0.00,VWS V14.01,2013-02-23 02:26:00,
2013-02-22 21:31:00,71.9,69.8,30.06,SSW,200,1.0,3.0,93,0.00,,---,0.00,VWS V14.01,2013-02-23 02:31:00,
2013-02-22 21:36:00,71.8,69.7,30.06,WSW,243,1.0,4.0,93,0.00,,---,0.00,VWS V14.01,2013-02-23 02:36:00,
2013-02-22 21:41:00,71.8,69.7,30.06,South,169,0.0,7.0,93,0.00,,---,0.00,VWS V14.01,2013-02-23 02:41:00,
2013-02-22 21:46:00,71.8,69.7,30.06,SSE,158,0.0,7.0,93,0.00,,---,0.00,VWS V14.01,2013-02-23 02:46:00,
2013-02-22 21:51:00,71.7,69.6,30.07,ESE,123,0.0,7.0,93,0.00,,---,0.00,VWS V14.01,2013-02-23 02:51:00,
2013-02-22 21:56:00,71.6,69.5,30.07,SSE,158,0.0,7.0,93,0.00,,---,0.00,VWS V14.01,2013-02-23 02:56:00,
2013-02-22 22:01:00,71.5,69.4,30.07,SE,136,0.0,7.0,93,0.00,,---,0.00,VWS V14.01,2013-02-23 03:01:00,
2013-02-22 22:06:00,71.4,69.3,30.07,SSE,150,0.0,1.0,93,0.00,,---,0.00,VWS V14.01,2013-02-23 03:06:00,
2013-02-22 22:11:00,71.3,69.2,30.07,SE,141,0.0,1.0,93,0.00,,---,0.00,VWS V14.01,2013-02-23 03:11:00,
2013-02-22 22:17:00,71.3,69.2,30.07,South,172,0.0,1.0,93,0.00,,---,0.00,VWS V14.01,2013-02-23 03:17:00,
2013-02-22 22:22:00,71.2,69.1,30.07,SSE,162,0.0,1.0,93,0.00,,---,0.00,VWS V14.01,2013-02-23 03:22:00,
2013-02-22 22:27:00,71.1,69.3,30.07,South,170,0.0,1.0,94,0.00,,---,0.00,VWS V14.01,2013-02-23 03:27:00,
2013-02-22 22:32:00,71.0,69.2,30.07,SW,222,0.0,0.0,94,0.00,,---,0.00,VWS V14.01,2013-02-23 03:32:00,
2013-02-22 22:37:00,71.0,69.2,30.07,SSW,208,0.0,1.0,94,0.00,,---,0.00,VWS V14.01,2013-02-23 03:37:00,
2013-02-22 22:42:00,71.0,69.2,30.06,SE,138,0.0,1.0,94,0.00,,---,0.00,VWS V14.01,2013-02-23 03:42:00,
2013-02-22 22:47:00,71.0,69.2,30.06,SSE,156,0.0,2.0,94,0.00,,---,0.00,VWS V14.01,2013-02-23 03:47:00,
2013-02-22 22:52:00,70.9,69.1,30.06,South,174,1.0,2.0,94,0.00,,---,0.00,VWS V14.01,2013-02-23 03:52:00,
2013-02-22 22:57:00,70.9,69.1,30.06,WNW,284,0.0,2.0,94,0.00,,---,0.00,VWS V14.01,2013-02-23 03:57:00,
2013-02-22 23:02:00,70.8,69.0,30.06,SE,137,0.0,1.0,94,0.00,,---,0.00,VWS V14.01,2013-02-23 04:02:00,
2013-02-22 23:07:00,70.8,69.0,30.05,SE,143,1.0,1.0,94,0.00,,---,0.00,VWS V14.01,2013-02-23 04:07:00,
2013-02-22 23:12:00,70.7,69.2,30.05,SE,141,1.0,3.0,95,0.00,,---,0.00,VWS V14.01,2013-02-23 04:12:00,
2013-02-22 23:17:00,70.7,68.9,30.05,SSE,163,0.0,3.0,94,0.00,,---,0.00,VWS V14.01,2013-02-23 04:17:00,
2013-02-22 23:22:00,70.6,68.8,30.05,SE,141,0.0,3.0,94,0.00,,---,0.00,VWS V14.01,2013-02-23 04:22:00,
2013-02-22 23:27:00,70.6,69.1,30.05,SSW,204,1.0,3.0,95,0.00,,---,0.00,VWS V14.01,2013-02-23 04:27:00,
2013-02-22 23:32:00,70.6,69.1,30.05,SSW,195,0.0,0.0,95,0.00,,---,0.00,VWS V14.01,2013-02-23 04:32:00,
2013-02-22 23:37:00,70.6,69.1,30.05,SSE,150,0.0,2.0,95,0.00,,---,0.00,VWS V14.01,2013-02-23 04:37:00,
2013-02-22 23:42:00,70.5,68.7,30.05,ESE,123,0.0,0.0,94,0.00,,---,0.00,VWS V14.01,2013-02-23 04:42:00,
2013-02-22 23:47:00,70.5,69.0,30.05,South,183,1.0,2.0,95,0.00,,---,0.00,VWS V14.01,2013-02-23 04:47:00,
2013-02-22 23:52:00,70.5,69.0,30.05,WSW,257,0.0,2.0,95,0.00,,---,0.00,VWS V14.01,2013-02-23 04:52:00,
2013-02-22 23:58:00,70.5,69.0,30.05,SSW,203,0.0,2.0,95,0.00,,---,0.00,VWS V14.01,2013-02-23 04:58:00,